Regional Weather Roundup
Issued by NWS

Home | Current Version | Previous Version | Text Only | Print | Product List | Glossary On
Versions: 1 2 3 4 5 6 7 8 9 10 11 12 13 14 15 16 17 18 19 20 21 22 23 24 25 26 27 28 29 30 31 32 33 34 35 36 37 38 39 40 41 42 43 44 45 46 47 48 49 50
000
ASUS43 KTOP 231308
RWRKS

WEATHER ROUNDUP FOR KANSAS
NATIONAL WEATHER SERVICE GOODLAND KS
800 AM CDT SAT JUL 23 2016

NOTE:  "FAIR" INDICATES FEW OR NO CLOUDS BELOW 12,000 FEET WITH NO
SIGNIFICANT WEATHER AND/OR OBSTRUCTIONS TO VISIBILITY.

KSZ001>006-013>018-027>032-041>047-231400-
NORTHWEST KANSAS

CITY           SKY/WX    TMP DP  RH WIND       PRES   REMARKS
GOODLAND       CLOUDY    70  65  84 SE9       29.96F
HAYS           MOSUNNY   75  63  64 E7        29.94F
HILL CITY      CLOUDY    74  69  85 SE9       29.90S
RUSSELL        MOSUNNY   80  63  55 S8        29.94S
$$

KSZ061>065-074>080-084>089-231400-
SOUTHWEST KANSAS

CITY           SKY/WX    TMP DP  RH WIND       PRES   REMARKS
DODGE CITY     CLOUDY    75  62  64 S9        29.96S
ELKHART          N/A     76  54  46 S9          N/A
GARDEN CITY    CLOUDY    73  59  61 S6        29.93F
GREAT BEND     MOSUNNY   79  63  57 CALM      29.96R
LIBERAL        SUNNY     72  55  56 S12       29.99S
PRATT          CLOUDY    74  62  64 S9        29.97R
$$

KSZ066>073-081>083-090>101-231400-
SOUTHEAST KANSAS

CITY           SKY/WX    TMP DP  RH WIND       PRES   REMARKS
CHANUTE        SUNNY     80  73  79 S6        29.97R
COFFEYVILLE    SUNNY     81  73  76 S5        29.97R
HUTCHINSON     CLOUDY    78  69  73 E3        29.96R
MEDICINE LODGE   N/A     77  65  66 SE6       29.95S
NEWTON         CLOUDY    79  68  69 S6        29.98R
PARSONS        SUNNY     81  73  76 VRB3      29.98R
WICHITA INTL   PTSUNNY   77  68  73 S5        29.96R
WICHITA JABRA  MOSUNNY   79  69  71 S6        29.97R
WICHITA MCCONL PTSUNNY   78  68  70 S6        29.97R
WINFIELD       SUNNY     80  70  71 S5        29.97R
$$

KSZ007>012-019>026-033>040-048>060-102>105-231400-
NORTHEAST KANSAS

CITY           SKY/WX    TMP DP  RH WIND       PRES   REMARKS
CONCORDIA      CLOUDY    77  68  73 S12       29.91F
EMPORIA        CLOUDY    78  71  79 SE3       29.98R
LAWRENCE       MOSUNNY   80  75  84 CALM      29.97R
MANHATTAN      CLOUDY    80  71  74 S6        29.93F
MARYSVILLE     CLOUDY    77  70  78 SE5       29.92F
OLATHE IND     SUNNY     81  73  76 S10       29.98R
OLATHE EXE     SUNNY     79  73  82 S7        29.98R
SALINA         CLOUDY    80  67  64 S7        29.95S
TOPEKA BILLARD   N/A     82  71  69 S6        29.96R
TOPEKA FORBES  PTSUNNY   83  73  72 S3        29.98R
$$




USA.gov is the U.S. government's official web portal to all federal, state and local government web resources and services.